This is the latest recevied weather packets stored in our database for station/object JS1SZZ-13. If no packets are shown the sender has not sent any weather packets the latest 10 day(s).
| Time | Temp. | Humidity | Pressure | Rain* | Wind** | Luminosity | Snow |
|---|---|---|---|---|---|---|---|
| 1777867499 | 25° C | 23% | 995.8 hPa | 0 mm | - | - | - |
| 1777866600 | 25.56° C | 27% | 995.9 hPa | 0 mm | - | - | - |
| 1777865700 | 26.11° C | 27% | 996 hPa | 0 mm | - | - | - |
| 1777864799 | 25.56° C | 29% | 995.9 hPa | 0 mm | - | - | - |
| 1777863900 | 26.11° C | 36% | 995.9 hPa | 0 mm | - | - | - |
| 1777863001 | 26.11° C | 28% | 996.2 hPa | 0 mm | - | - | - |
| 1777862100 | 25.56° C | 32% | 996.2 hPa | 0 mm | - | - | - |
| 1777861200 | 25° C | 34% | 996.5 hPa | 0 mm | - | - | - |
| 1777860299 | 25° C | 33% | 996.4 hPa | 0 mm | - | - | - |
| 1777859400 | 25° C | 34% | 996.6 hPa | 0 mm | - | - | - |
| 1777858500 | 25.56° C | 38% | 996.7 hPa | 0 mm | - | - | - |
| 1777857599 | 25.56° C | 54% | 996.6 hPa | 0 mm | - | - | - |
| 1777856701 | 24.44° C | 54% | 996.9 hPa | 0 mm | - | - | - |
| 1777855800 | 23.89° C | 62% | 996.7 hPa | 0 mm | - | - | - |
| 1777854899 | 22.22° C | 67% | 996.9 hPa | 0 mm | - | - | - |
| 1777854000 | 22.22° C | 72% | 997.1 hPa | 0 mm | - | - | - |
| 1777853100 | 21.11° C | 73% | 997.4 hPa | 0 mm | - | - | - |
| 1777852200 | 20° C | 75% | 997.7 hPa | 0 mm | - | - | - |
| 1777851300 | 18.89° C | 81% | 997.8 hPa | 0 mm | - | - | - |
| 1777850399 | 17.78° C | 85% | 997.7 hPa | 0 mm | - | - | - |
| 1777849500 | 17.22° C | 87% | 997.5 hPa | 0 mm | - | - | - |
| 1777848600 | 15.56° C | 88% | 997.7 hPa | 0 mm | - | - | - |
| 1777847699 | 16.11° C | 89% | 998.2 hPa | 0 mm | - | - | - |
| 1777846799 | 15.56° C | 90% | 998.1 hPa | 0 mm | - | - | - |
| 1777845901 | 15° C | 92% | 998.4 hPa | 0 mm | - | - | - |
* Rain latest hour (hover to see other rain measurements)
** Current wind speed in m/s (hover to see current wind gust speed)